This is the latest recevied weather packets stored in our database for station/object EA8BQU-10. If no packets are shown the sender has not sent any weather packets the latest 10 day(s).
| Time | Temp. | Humidity | Pressure | Rain* | Wind** | Luminosity | Snow |
|---|---|---|---|---|---|---|---|
| 1788093363 | 25° C | 100% | 1020 hPa | - | - | - | - |
| 1788092460 | 25° C | 100% | 1020.3 hPa | - | - | - | - |
| 1788091560 | 24.44° C | 100% | 1020.2 hPa | - | - | - | - |
| 1788090660 | 25° C | 100% | 1020.5 hPa | - | - | - | - |
| 1788089760 | 25° C | 100% | 1020.7 hPa | - | - | - | - |
| 1788088860 | 24.44° C | 100% | 1020.9 hPa | - | - | - | - |
| 1788087968 | 24.44° C | 100% | 1020.7 hPa | - | - | - | - |
| 1788087067 | 25° C | 100% | 1020.8 hPa | - | - | - | - |
| 1788086162 | 25° C | 100% | 1020.3 hPa | - | - | - | - |
| 1788085262 | 24.44° C | 100% | 1020.1 hPa | - | - | - | - |
| 1788084420 | 25° C | 100% | 1020.1 hPa | - | - | - | - |
| 1788084362 | 25° C | 100% | 1020.1 hPa | - | - | - | - |
| 1788083461 | 24.44° C | 100% | 1019.8 hPa | - | - | - | - |
| 1788082561 | 24.44° C | 100% | 1019.6 hPa | - | - | - | - |
| 1788081661 | 23.89° C | 100% | 1019.5 hPa | - | - | - | - |
| 1788080761 | 23.89° C | 100% | 1019.2 hPa | - | - | - | - |
| 1788079897 | 23.33° C | 100% | 1019.1 hPa | - | - | - | - |
| 1788079861 | 23.33° C | 100% | 1019.1 hPa | - | - | - | - |
| 1788078961 | 23.89° C | 100% | 1019.1 hPa | - | - | - | - |
| 1788078061 | 23.89° C | 100% | 1019 hPa | - | - | - | - |
| 1788077160 | 23.33° C | 100% | 1019.1 hPa | - | - | - | - |
| 1788076260 | 23.33° C | 100% | 1018.9 hPa | - | - | - | - |
| 1788075360 | 23.33° C | 100% | 1018.8 hPa | - | - | - | - |
| 1788074460 | 23.33° C | 100% | 1019 hPa | - | - | - | - |
| 1788073560 | 23.33° C | 100% | 1018.8 hPa | - | - | - | - |
* Rain since midnight (hover to see other rain measurements)
** Current wind speed in m/s (hover to see current wind gust speed)